EN

Hourly Weather Laczki

Today, 3 August, Tuesday

Time Temperature Precipitation Wind Pressure Humidity
00:00 +14°C° 0 mm 2 mps 737 mmHg 91%
01:00 +14°C° 0 mm 2 mps 737 mmHg 91%
02:00 +12°C° 0 mm 3 mps 737 mmHg 92%
03:00 +12°C° 0 mm 3 mps 737 mmHg 91%
04:00 +13°C° 0 mm 2 mps 737 mmHg 90%
05:00 +12°C° 0 mm 2 mps 737 mmHg 90%
06:00 +13°C° 0 mm 3 mps 738 mmHg 85%
07:00 +14°C° 0 mm 3 mps 738 mmHg 80%
08:00 +17°C° 0 mm 4 mps 738 mmHg 76%
09:00 +18°C° 0 mm 4 mps 739 mmHg 67%
10:00 +20°C° 0 mm 4 mps 739 mmHg 58%
11:00 +21°C° 0 mm 4 mps 739 mmHg 49%
12:00 +22°C° 0 mm 4 mps 739 mmHg 47%
13:00 +23°C° 0 mm 4 mps 739 mmHg 45%
14:00 +23°C° 0 mm 4 mps 738 mmHg 42%
15:00 +22°C° 0 mm 3 mps 738 mmHg 48%
16:00 +23°C° 0 mm 2 mps 738 mmHg 53%
17:00 +21°C° 0 mm 2 mps 738 mmHg 59%
18:00 +21°C° 0 mm 1 mps 738 mmHg 61%
19:00 +20°C° 0 mm 1 mps 738 mmHg 64%
20:00 +19°C° 0 mm 1 mps 738 mmHg 66%
21:00 +18°C° 0.1 mm 1 mps 738 mmHg 69%
22:00 +17°C° 0.1 mm 2 mps 738 mmHg 72%
23:00 +16°C° 0.1 mm 2 mps 738 mmHg 74%

Tomorrow, 4 August, Wednesday

Time Temperature Precipitation Wind Pressure Humidity
00:00 +16°C° 0.2 mm 2 mps 738 mmHg 77%
01:00 +16°C° 0.2 mm 2 mps 738 mmHg 80%
02:00 +15°C° 0.2 mm 2 mps 738 mmHg 83%
03:00 +15°C° 0.1 mm 2 mps 738 mmHg 85%
04:00 +14°C° 0.1 mm 2 mps 737 mmHg 87%
05:00 +14°C° 0.1 mm 2 mps 737 mmHg 89%
06:00 +15°C° 0 mm 2 mps 737 mmHg 86%
07:00 +17°C° 0 mm 2 mps 737 mmHg 82%
08:00 +18°C° 0 mm 2 mps 738 mmHg 79%
09:00 +20°C° 0 mm 2 mps 738 mmHg 73%
10:00 +21°C° 0 mm 3 mps 738 mmHg 67%
11:00 +22°C° 0 mm 3 mps 737 mmHg 60%
12:00 +21°C° 0.2 mm 3 mps 737 mmHg 66%
13:00 +20°C° 0.2 mm 2 mps 737 mmHg 72%
14:00 +20°C° 0.2 mm 2 mps 737 mmHg 78%
15:00 +20°C° 0.1 mm 2 mps 737 mmHg 78%
16:00 +20°C° 0.1 mm 2 mps 737 mmHg 77%
17:00 +21°C° 0.1 mm 1 mps 737 mmHg 77%
18:00 +19°C° 0.3 mm 2 mps 737 mmHg 82%
19:00 +18°C° 0.3 mm 2 mps 736 mmHg 86%
20:00 +17°C° 0.3 mm 2 mps 736 mmHg 91%
21:00 +16°C° 0.1 mm 2 mps 736 mmHg 92%
22:00 +16°C° 0.1 mm 2 mps 736 mmHg 93%
23:00 +16°C° 0.1 mm 2 mps 736 mmHg 94%

Day after tomorrow, 5 August, Thursday

Time Temperature Precipitation Wind Pressure Humidity
00:00 +15°C° 0 mm 2 mps 736 mmHg 95%
01:00 +15°C° 0 mm 2 mps 736 mmHg 95%
02:00 +14°C° 0 mm 2 mps 736 mmHg 96%
03:00 +14°C° 0 mm 2 mps 736 mmHg 96%
04:00 +14°C° 0 mm 2 mps 736 mmHg 96%
05:00 +14°C° 0 mm 2 mps 735 mmHg 96%
06:00 +15°C° 0 mm 2 mps 735 mmHg 93%
07:00 +16°C° 0 mm 2 mps 735 mmHg 90%
08:00 +16°C° 0 mm 2 mps 735 mmHg 86%
09:00 +17°C° 0 mm 2 mps 735 mmHg 83%
10:00 +18°C° 0 mm 3 mps 735 mmHg 81%
11:00 +18°C° 0 mm 3 mps 735 mmHg 78%
12:00 +19°C° 0 mm 3 mps 735 mmHg 75%
13:00 +20°C° 0 mm 2 mps 735 mmHg 73%
14:00 +21°C° 0 mm 2 mps 735 mmHg 70%
15:00 +21°C° 0 mm 2 mps 734 mmHg 70%
16:00 +21°C° 0 mm 3 mps 734 mmHg 70%
17:00 +22°C° 0 mm 3 mps 733 mmHg 70%
18:00 +20°C° 0.4 mm 3 mps 733 mmHg 77%
19:00 +19°C° 0.4 mm 3 mps 732 mmHg 84%
20:00 +18°C° 0.4 mm 3 mps 731 mmHg 90%
21:00 +18°C° 0.8 mm 4 mps 731 mmHg 93%
22:00 +18°C° 0.8 mm 4 mps 730 mmHg 95%
23:00 +17°C° 0.8 mm 4 mps 730 mmHg 97%

6 August, Friday

Time Temperature Precipitation Wind Pressure Humidity
00:00 +18°C° 1.4 mm 4 mps 729 mmHg 97%
01:00 +18°C° 1.4 mm 4 mps 729 mmHg 97%
02:00 +18°C° 1.4 mm 4 mps 728 mmHg 97%
03:00 +18°C° 0.2 mm 4 mps 728 mmHg 96%
04:00 +17°C° 0.2 mm 3 mps 727 mmHg 96%
05:00 +17°C° 0.2 mm 2 mps 727 mmHg 96%
06:00 +17°C° 0.1 mm 3 mps 727 mmHg 96%
07:00 +17°C° 0.1 mm 4 mps 727 mmHg 96%
08:00 +17°C° 0.1 mm 4 mps 727 mmHg 96%
09:00 +16°C° 0.1 mm 5 mps 728 mmHg 95%
10:00 +16°C° 0.1 mm 6 mps 728 mmHg 95%
11:00 +16°C° 0.1 mm 7 mps 729 mmHg 94%
12:00 +16°C° 0.1 mm 7 mps 730 mmHg 93%
13:00 +16°C° 0.1 mm 6 mps 730 mmHg 91%
14:00 +16°C° 0.1 mm 6 mps 731 mmHg 90%
15:00 +16°C° 0 mm 6 mps 731 mmHg 87%
16:00 +17°C° 0 mm 6 mps 731 mmHg 83%
17:00 +17°C° 0 mm 5 mps 732 mmHg 79%
18:00 +17°C° 0 mm 4 mps 732 mmHg 82%
19:00 +16°C° 0 mm 3 mps 732 mmHg 85%
20:00 +15°C° 0 mm 2 mps 733 mmHg 89%
21:00 +15°C° 0 mm 2 mps 733 mmHg 90%
22:00 +14°C° 0 mm 2 mps 733 mmHg 91%
23:00 +14°C° 0 mm 1 mps 733 mmHg 92%

7 August, Saturday

Time Temperature Precipitation Wind Pressure Humidity
00:00 +13°C° 0 mm 1 mps 733 mmHg 93%
01:00 +13°C° 0 mm 1 mps 733 mmHg 94%
02:00 +13°C° 0 mm 2 mps 734 mmHg 94%
03:00 +13°C° 0 mm 2 mps 734 mmHg 94%
04:00 +13°C° 0 mm 2 mps 734 mmHg 95%
05:00 +13°C° 0 mm 2 mps 734 mmHg 95%
06:00 +15°C° 0 mm 2 mps 735 mmHg 90%
07:00 +16°C° 0 mm 3 mps 735 mmHg 85%
08:00 +18°C° 0 mm 3 mps 735 mmHg 80%
09:00 +19°C° 0 mm 3 mps 735 mmHg 74%
10:00 +21°C° 0 mm 3 mps 736 mmHg 67%
11:00 +22°C° 0 mm 3 mps 736 mmHg 61%
12:00 +24°C° 0 mm 3 mps 736 mmHg 57%
13:00 +25°C° 0 mm 3 mps 736 mmHg 54%
14:00 +26°C° 0 mm 3 mps 736 mmHg 50%
15:00 +26°C° 0 mm 3 mps 736 mmHg 50%
16:00 +26°C° 0 mm 3 mps 736 mmHg 50%
17:00 +26°C° 0 mm 2 mps 736 mmHg 49%
18:00 +25°C° 0 mm 2 mps 736 mmHg 55%
19:00 +23°C° 0 mm 1 mps 736 mmHg 62%
20:00 +22°C° 0 mm 1 mps 736 mmHg 68%
21:00 +21°C° 0 mm 1 mps 736 mmHg 70%
22:00 +19°C° 0 mm 2 mps 737 mmHg 72%
23:00 +18°C° 0 mm 2 mps 737 mmHg 74%

8 August, Sunday

Time Temperature Precipitation Wind Pressure Humidity
00:00 +18°C° 0 mm 3 mps 737 mmHg 76%
01:00 +17°C° 0 mm 3 mps 737 mmHg 78%
02:00 +17°C° 0 mm 3 mps 737 mmHg 79%
03:00 +17°C° 0 mm 3 mps 737 mmHg 81%
04:00 +17°C° 0 mm 4 mps 736 mmHg 82%
05:00 +15°C° 0 mm 4 mps 736 mmHg 84%
06:00 +17°C° 0 mm 5 mps 736 mmHg 79%
07:00 +20°C° 0 mm 5 mps 736 mmHg 75%
08:00 +21°C° 0 mm 6 mps 736 mmHg 71%
09:00 +23°C° 0 mm 6 mps 736 mmHg 65%
10:00 +24°C° 0 mm 6 mps 736 mmHg 60%
11:00 +27°C° 0 mm 6 mps 736 mmHg 54%
12:00 +26°C° 0 mm 6 mps 737 mmHg 56%
13:00 +26°C° 0 mm 6 mps 737 mmHg 57%
14:00 +26°C° 0 mm 6 mps 738 mmHg 58%
15:00 +26°C° 0 mm 6 mps 738 mmHg 60%
16:00 +25°C° 0 mm 5 mps 738 mmHg 62%
17:00 +25°C° 0 mm 5 mps 738 mmHg 64%
18:00 +22°C° 2.5 mm 5 mps 739 mmHg 74%
19:00 +20°C° 2.5 mm 5 mps 739 mmHg 84%
20:00 +17°C° 2.5 mm 5 mps 740 mmHg 94%
21:00 +17°C° 0.1 mm 4 mps 740 mmHg 94%
22:00 +17°C° 0.1 mm 3 mps 741 mmHg 95%
23:00 +16°C° 0.1 mm 2 mps 741 mmHg 96%
Show more